Overview Statistics Trail Chart Weather Telemetry Raw packets
 

This is the latest recevied weather packets stored in our database for station/object KD7CIH. If no packets are shown the sender has not sent any weather packets the latest 10 day(s).

<< 71 72 73 74 75 76 77 >>
Time Temp. Humidity Pressure Rain* Wind** Luminosity Snow
1788189334 12.78° C 70% 1018.4 hPa 0 mm - - -
1788189033 12.78° C 71% 1018.6 hPa 0 mm - - -
1788188735 12.22° C 73% 1018.4 hPa 0 mm - - -
1788188433 12.22° C 73% 1018.4 hPa 0 mm - - -
1788188134 12.22° C 73% 1018.4 hPa 0 mm - - -
1788187962 11.67° C 74% 1018.6 hPa 0 mm - - -
1788187533 11.67° C 76% 1018.4 hPa 0 mm - - -
1788187233 11.11° C 76% 1018.3 hPa 0 mm - - -
1788186933 11.11° C 76% 1018.3 hPa 0 mm - - -
1788186635 11.11° C 77% 1018.3 hPa 0 mm - - -
1788186334 10.56° C 77% 1018.3 hPa 0 mm - - -
1788186033 10.56° C 79% 1018.3 hPa 0 mm - - -
1788185734 10° C 80% 1018.3 hPa 0 mm - - -
1788185435 10° C 81% 1018.3 hPa 0 mm - - -
1788185135 9.44° C 81% 1018.2 hPa 0 mm - - -
1788184833 8.89° C 83% 1018.1 hPa 0 mm - - -
1788184534 8.89° C 83% 1017.8 hPa 0 mm - - -
1788184233 8.33° C 83% 1017.8 hPa 0 mm - - -
1788184061 8.33° C 84% 1018 hPa 0 mm - - -
1788183635 7.78° C 85% 1017.8 hPa 0 mm - - -
1788183332 7.78° C 86% 1017.8 hPa 0 mm - - -
1788183035 7.22° C 87% 1017.8 hPa 0 mm - - -
1788182733 7.22° C 87% 1018 hPa 0 mm - - -
1788182562 6.67° C 86% 1018 hPa 0 mm - - -
1788182133 6.67° C 86% 1017.8 hPa 0 mm - - -

* Rain latest hour (hover to see other rain measurements)
** Current wind speed in m/s (hover to see current wind gust speed)